Location: Bruch
(44.2051°N, 0.4120°E)
Time: 03:50:33
(UTC+00:00)

EXPRESS MD2 - Pass Details

Date: 29 November 2020
Orbit: 262 x 3990 km, 49.9° (Epoch: 24 January)

Event Time Altitude Azimuth Distance (km) Brightness Sun altitude
Exits shadow 06:02:04 18° 305° (NW) 1,417 4.8 -12.2°
Maximum altitude 06:04:58 60° 22° (NNE) 852 4.3 -11.7°
Drops below altitude 10° 06:12:28 10° 102° (ESE) 3,430 8.9 -10.5°
Sets 06:16:50 0° 106° (ESE) 5,074 10.5 -9.7°
